Location: Milton Keynes
(52.0316°N, 0.7531°W)
Time: 20:27:55
(UTC+01:00)

Falcon 9 debris - Visible Passes

Search period start: 16 October 2019 00:00
Search period end: 26 October 2019 00:00
Orbit: 431 x 438 km, 53.0° (Epoch: 16 October)

Date Brightness Start Highest point End Pass type
(mag) Time Alt. Az. Time Alt. Az. Time Alt. Az.
16 Oct 3.0 19:55:51 10° WNW 19:59:19 88° SSW 19:59:57 57° ESE visible
16 Oct 6.5 21:33:02 10° W 21:33:13 11° W 21:33:13 11° W visible
17 Oct 3.1 19:13:15 10° WNW 19:16:43 82° N 19:18:58 20° E visible
17 Oct 5.2 20:50:22 10° W 20:52:15 26° WSW 20:52:15 26° WSW visible
18 Oct 3.6 20:07:43 10° WNW 20:11:05 50° SSW 20:11:19 49° S visible
19 Oct 3.4 19:25:07 10° WNW 19:28:33 64° SSW 19:30:26 24° SE visible
19 Oct 6.0 21:02:43 10° W 21:03:43 14° WSW 21:03:43 14° WSW visible
20 Oct 3.2 18:42:31 10° WNW 18:45:58 78° SSW 18:49:25 10° ESE visible
20 Oct 5.0 20:19:50 10° W 20:22:39 23° SW 20:22:54 23° SSW visible
21 Oct 4.7 19:37:05 10° W 19:40:10 31° SSW 19:42:11 17° SSE visible
22 Oct 4.3 18:54:24 10° W 18:57:39 40° SSW 19:00:55 10° SE visible
23 Oct 6.0 19:49:48 10° WSW 19:51:32 13° SW 19:53:16 10° SSW visible
24 Oct 5.8 19:06:40 10° W 19:09:06 18° SW 19:11:32 10° S visible
25 Oct 5.5 18:23:47 10° W 18:26:38 24° SW 18:29:29 10° SSE visible
